Location: Unspecified
(0.0000°N, 0.0000°E)
Time: 10:27:28
(UTC+02:00)

SORCE - Visible Passes

Search period start: 11 May 2021 00:00
Search period end: 21 May 2021 00:00
Orbit: 585 x 615 km, 40.0° (Epoch: 10 May)

Date Brightness Start Highest point End Pass type
(mag) Time Alt. Az. Time Alt. Az. Time Alt. Az.
11 May 7.2 06:08:56 33° SSE 06:09:25 34° SE 06:13:33 10° ENE visible
12 May 5.9 06:19:12 68° SSW 06:19:41 79° SE 06:24:14 10° NE visible
13 May 6.5 06:29:24 42° WNW 06:29:57 44° NW 06:34:18 10° NNE visible
14 May 7.6 06:39:33 20° NW 06:40:15 21° NW 06:43:39 10° N visible
15 May 9.1 05:12:57 12° NE 05:12:57 12° NE 05:13:19 10° NE visible
16 May 8.9 05:22:57 12° NNE 05:22:57 12° NNE 05:23:17 10° NNE visible
